MEASAT-3B

Last updated on Wed Sep 17 2025 00:02:48 GMT+0000 (Coordinated Universal Time)

1 40147U 14054B 25259.63287596 -.00000261 00000+0 00000+0 0 9997 2 40147 0.0422 35.1019 0001163 86.7210 193.3466 1.00272870 40160
UTC large
Height (km)
Speed (km/s)
/
Latitude / Longitude
Inclination (degrees)
Orbital Period (minutes)
Azimuth
Elevation
Range (km)
Doppler Factor

Next 0 passes for location: London (51.5072 / 0.1276)

Sorry there are no passes over London.